Starlink 30893

operational
NORAD ID: 58724 Int'l Des: 2024-002 Owner: SPXS Country: US Constellation: starlink
LEOCIRCULAR

Starlink 30893について

説明を読み込み中...

リアルタイム位置

3D地球を読み込み中...

次回通過

高度履歴

Altitude vs Time

uPlot chart will show altitude changes over time

軌道要素

1 58724U 24002V 25341.14860369 .00001670 00000-0 68530-4 0 9996
2 58724 53.1616 300.0138 0001078 98.0304 262.0819 15.30183528107838
Epoch: Dec 7, 2025 • Age: 17 hours

現在のステータス

高度 494.5 km
速度 7.62 km/s
衛星直下点 -53.25°S, 179.8°E
打ち上げ日 Jan 3, 2024
運用期間 1.9 years
タイプ internet

技術仕様

分類 Payload
質量 730.00 kg
乾燥質量 700.00 kg
総質量 730.00 kg
長さ 0.30 m
直径 4.10 m
スパン 29.00 m
形状 Box + pan
製造者 SPXS
バスタイプ Starlink V2M
フェーズステータス In Orbit
所有者/国 SPXS/US

大規模コンステレーション

Loading constellations...